Retour au catalogue

COSMOS 2499 DEB

LostPO
NORAD 55735·DEBRIS·🇷🇺 Russia

Lancé May 23, 2014 depuis Plesetsk Cosmodrome

Loading…

Prochains Passages (prochaines 24 heures)

TLE

PériméSource: Space-Track

Époque: Jul 18, 2024, 03:28 UTC

1 55735U 14028AX  24200.14513838  .00011960  00000-0  39285-1 0  9996
2 55735  82.4301   0.3385 0249347 222.3480 135.8144 12.90926405 68710

Suivez COSMOS 2499 DEB en temps réel avec AllMySat

Download on the App Store